Location: Litvinovka
(48.6667°N, 34.3500°E)
Time: 03:43:11
(UTC+00:00)

Cosmos 1269 Rocket - Pass Details

Date: 18 September 2020
Orbit: 772 x 780 km, 74.1° (Epoch: 22 October)

Event Time Altitude Azimuth Distance (km) Brightness Sun altitude
Rises 17:52:37 0° 340° (NNW) 3,274 8.0 -20.5°
Reaches altitude 10° 17:55:05 10° 345° (NNW) 2,343 7.1 -20.9°
Maximum altitude 18:00:15 50° 61° (ENE) 997 4.3 -21.6°
Enters shadow 18:01:05 45° 90° (E) 1,051 4.3 -21.7°
